{"data":{"norad_id":67708,"intl_designator":"2026-025R","name":"STARLINK-36287","alt_names":[],"object_type":"PAYLOAD","status":"ACTIVE","operator":null,"country":"US","launch_date":"2026-02-07","launch_site_code":"AFWTR","launch_vehicle":null,"mission":null,"orbit_class":"UNKNOWN","rcs_meters":null,"size_class":null,"mass_kg":null,"dimensions":null,"purposes":["comms"],"wikipedia_slug":null,"has_3d_model":false,"image_url":null,"decayed_at":null,"tle_current":{"epoch":"2026-09-19T13:16:30.258336Z","epoch_age_seconds":150965,"freshness":"FRESH","line1":"1 67708U 26025R   26262.55312799  .00023053  00000+0  71410-3 0  9990","line2":"2 67708  97.2847  12.5137 0001005  95.8969 264.2388 15.33450864 35738","mean_motion":15.33450864,"eccentricity":0.0001005,"inclination_deg":97.2847,"raan_deg":12.5137,"arg_perigee_deg":95.8969,"mean_anomaly_deg":264.2388,"bstar":0.0007141,"rev_number":3573,"period_min":93.905845554371,"perigee_km":464.8379392913,"apogee_km":466.21351549951,"semimajor_km":6843.6627273954,"source":"CELESTRAK","updated_at":"2026-09-20T09:00:43.654057Z"}}}